#timestamp,LO_Frequency,Hit,StdDev 
1525953615.4,286046998.1,N
1525953635.3,286046998.5,N
1525953655.1,286046998.1,N
1525953675.8,286047000.8,N
1525953695.7,286047000.8,N
1525953715.5,286047002.5,N
1525953735.4,286047000.1,N
1525953755.2,286046999.9,N
1525953775.0,286047000.2,N
1525953775.9,286047000.2,N
1525953795.8,286046999.8,N
1525953815.6,286047002.2,N
1525953835.5,286047002.1,N
1525953855.3,286046999.9,N
1525953875.1,286047000.9,N
1525953895.9,286046999.7,N
1525953915.7,286047001.9,N
1525953935.5,286047001.4,N
1525953955.4,286047002.0,N
1525953975.2,286047001.7,N
1525953995.1,286047004.4,Y
1525953996.0,286047004.4,P
1525954015.8,286047002.3,N
1525954035.6,286047001.7,N
1525954055.5,286047002.7,N
1525954075.3,286047002.7,N
1525954095.2,286047002.8,N
1525954115.9,286046998.3,N
1525954135.7,286046998.2,N
1525954155.6,286046998.7,N
1525954175.4,286046998.1,N
1525954195.2,286046998.2,N
1525954215.1,286046997.0,N
1525954216.0,286046997.0,N
1525954235.8,286046996.8,N
1525954255.7,286046997.1,N
1525954275.5,286046997.5,N
1525954295.3,286046996.8,N
1525954315.2,286046997.5,N
1525954335.0,286046997.4,N
1525954335.9,286046997.4,N
1525954355.8,286046996.8,N
1525954375.6,286046997.4,N
1525954395.4,286046996.9,N
1525954415.3,286046994.9,N
1525954435.1,286046995.4,N
1525954455.8,286046995.2,N
1525954475.7,286046995.3,N
1525954495.5,286046994.9,N
1525954515.4,286046995.2,N
1525954535.2,286046993.3,N
1525954555.0,286046994.1,N
1525954555.9,286046994.1,N
1525954575.8,286046994.2,N
1525954595.6,286046994.3,N
1525954615.5,286046994.2,N
1525954635.3,286046994.2,Y
1525954655.1,286046995.4,P
1525954675.9,286046995.9,P
1525954695.7,286046996.2,P
1525954715.6,286046995.7,Y
1525954735.4,286047000.5,P
1525954755.2,286047000.5,N
1525954775.1,286046998.1,N
1525954776.0,286046998.1,N
1525954795.8,286046998.6,N
1525954815.6,286047000.8,N
1525954835.5,286047000.2,N
1525954855.3,286047000.9,N
1525954875.2,286047001.0,N
1525954895.0,286047001.1,N
1525954895.9,286047001.1,N
1525954915.8,286047000.0,N
1525954935.6,286047002.7,N
1525954955.4,286047002.0,N
1525954975.3,286047001.5,N
1525954995.1,286047002.5,N
1525955015.8,286046999.8,N
1525955035.7,286047001.9,N
1525955055.5,286047000.1,N
1525955075.4,286046999.7,N
1525955095.2,286047000.5,N
1525955115.0,286047002.8,N
1525955115.9,286047002.8,N
1525955135.8,286047002.7,N
1525955155.6,286046999.8,N
1525955175.5,286046999.7,N
1525955195.3,286047000.3,N
1525955215.1,286047000.9,N
1525955235.9,286046998.5,N
1525955255.7,286047000.8,N
1525955275.5,286047000.4,N
1525955295.4,286046999.8,N
1525955315.2,286047002.8,N
1525955335.1,286047002.6,N
1525955336.0,286047002.6,N
1525955355.8,286047002.3,N
1525955375.6,286046999.7,N
1525955395.5,286047000.3,N
1525955415.3,286047000.0,N
1525955435.1,286047001.2,N
1525955455.9,286046998.3,N
1525955475.7,286046998.4,N
1525955495.6,286046998.6,N
1525955515.4,286046998.3,N
1525955535.2,286046998.9,N
1525955555.1,286046998.2,N
1525955556.0,286046998.2,N
1525955575.8,286046998.1,N
1525955595.6,286046998.5,N
1525955615.5,286046998.3,N
1525955635.3,286047000.4,N
1525955655.2,286047001.1,N
1525955675.9,286046998.6,N
1525955695.7,286046998.2,N
1525955715.6,286047001.2,N
1525955735.4,286046999.9,N
1525955755.2,286047000.5,N
1525955775.1,286047000.5,N
1525955776.0,286047000.5,N
1525955795.8,286047000.9,N
1525955815.7,286047001.2,N
1525955835.5,286046999.9,N
1525955855.3,286047000.4,N
1525955875.2,286047000.4,N
1525955895.0,286047000.2,N
1525955895.9,286047000.2,N
1525955915.7,286047000.9,N
1525955935.6,286047000.5,N
1525955955.4,286046999.8,N
1525955975.3,286047000.6,N
1525955995.1,286047002.7,N
1525955996.0,286047002.7,N
1525956015.8,286047001.6,N
1525956035.7,286047003.8,N
1525956055.5,286047004.4,Y
1525956075.4,286047002.8,P
1525956095.2,286047000.4,N
1525956115.0,286047000.5,N
1525956115.9,286047000.5,N
1525956135.8,286047000.5,N
1525956155.6,286047000.4,N
1525956175.4,286046999.7,N
1525956195.3,286047000.9,N
1525956215.1,286046999.7,N
1525956235.9,286047002.7,Y
1525956255.7,286047000.2,P
1525956275.5,286047002.3,P
1525956295.4,286046999.8,N
1525956315.2,286046999.7,N
1525956335.0,286047000.1,N
1525956336.0,286047000.1,N
1525956355.8,286047002.1,N
1525956375.6,286047001.7,N
1525956395.5,286047002.0,N
1525956415.3,286046999.7,N
1525956435.2,286047000.0,N
1525956455.9,286047000.9,N
1525956475.7,286047000.9,N
1525956495.6,286047000.3,N
1525956515.4,286047002.0,N
1525956535.2,286047002.2,N
1525956555.1,286047002.1,N
1525956556.0,286047002.1,N
1525956575.8,286047002.2,N
1525956595.7,286047002.6,N
1525956615.5,286047003.2,Y
1525956635.3,286047002.8,P
1525956655.2,286047001.0,N
1525956675.0,286047000.0,N
1525956675.9,286047000.0,N
1525956695.8,286047002.4,N
1525956715.6,286047001.6,N
1525956735.4,286047001.5,N
1525956755.3,286047000.2,N
1525956775.1,286046998.3,N
1525956795.8,286046999.0,N
1525956815.7,286046998.2,N
1525956835.5,286047000.8,N
1525956855.4,286047000.2,N
1525956875.2,286047000.1,N
1525956895.0,286047001.7,N
1525956895.9,286047001.7,N
1525956915.8,286047001.6,N
1525956935.6,286047002.6,N
1525956955.4,286047002.5,N
1525956975.3,286047000.2,N
1525956995.1,286046999.8,N
1525957015.9,286046999.7,N
1525957035.7,286047001.8,N
1525957055.5,286047001.4,N
1525957075.4,286047001.4,N
1525957095.2,286047002.5,N
1525957115.0,286047002.4,N
1525957116.0,286047002.4,N
1525957135.8,286047001.4,N
1525957155.6,286047004.1,Y
1525957175.5,286047002.1,P
1525957195.3,286047002.4,P
